Date,Time,Wind Direction (degTN),Wind Speed (m/s),Wind Sigma Theta (deg),Wind Speed Std Dev (m/s),Air Temperature (degC),Relative Humidity (%),Nitrogen Oxide (ppm),Nitrogen Dioxide (ppm),Nitrogen Oxides (ppm),Sulfur Dioxide (ppm),PM10 (ug/m^3),PM2.5 (ug/m^3),Bsp (Mm^-1)
01/01/2013,00:00,141,2.1,20.4,0.9,24.2,83.0,,,,,23.0,8.1,
01/01/2013,01:00,153,2.3,18.9,0.8,24.6,80.7,0.002,0.005,0.006,0.001,24.8,9.9,19
01/01/2013,02:00,136,1.7,24.3,0.9,24.4,81.6,0.001,0.005,0.005,0.000,29.6,8.4,19
01/01/2013,03:00,160,2.0,19.2,0.9,23.8,85.5,0.000,0.003,0.003,0.000,23.1,7.0,20
01/01/2013,04:00,155,2.3,18.1,0.9,23.9,85.2,0.001,0.004,0.004,0.000,24.1,8.2,20
01/01/2013,05:00,152,2.4,20.0,0.9,23.6,86.8,0.002,0.005,0.006,0.000,21.4,5.5,19
01/01/2013,06:00,160,2.8,18.7,1.0,24.0,85.0,0.001,0.003,0.003,0.000,16.2,3.1,16
01/01/2013,07:00,141,2.9,22.1,1.1,24.9,81.4,0.002,0.003,0.004,0.000,18.5,6.5,16
01/01/2013,08:00,153,2.2,21.5,0.8,24.6,84.4,0.002,0.003,0.004,0.000,19.4,8.6,16
01/01/2013,09:00,146,2.2,25.3,0.8,25.9,79.4,0.001,0.001,0.002,0.000,17.2,8.5,16
01/01/2013,10:00,113,3.3,18.3,1.1,28.1,70.7,0.007,0.003,0.010,0.003,17.9,5.0,17
01/01/2013,11:00,104,3.7,17.4,1.2,28.1,71.3,0.009,0.005,0.014,0.008,20.8,7.1,18
01/01/2013,12:00,113,1.9,19.6,0.7,26.9,81.8,0.001,0.002,0.003,0.001,21.2,5.4,24
01/01/2013,13:00,108,2.3,28.0,0.8,28.6,72.5,0.029,0.009,0.038,0.007,20.9,3.7,20
01/01/2013,14:00,77,3.4,17.2,1.1,28.2,73.1,0.003,0.003,0.006,0.003,23.4,7.5,17
01/01/2013,15:00,94,3.0,19.5,1.1,27.4,76.4,0.003,0.003,0.006,0.001,21.6,8.2,17
01/01/2013,16:00,90,1.4,29.5,0.6,26.1,84.1,0.001,0.003,0.004,0.001,19.7,5.0,22
01/01/2013,17:00,106,1.4,17.7,0.5,25.3,88.6,0.001,0.004,0.005,0.000,21.2,5.3,25
01/01/2013,18:00,135,1.0,15.4,0.3,25.3,89.7,0.001,0.005,0.006,0.000,18.3,3.5,28
01/01/2013,19:00,122,1.0,17.9,0.4,25.2,89.4,0.000,0.005,0.005,0.000,20.5,4.3,26
01/01/2013,20:00,156,0.8,31.4,0.4,25.3,88.9,0.002,0.006,0.008,0.000,22.0,3.7,27
01/01/2013,21:00,137,1.2,20.8,0.5,25.3,88.1,0.001,0.005,0.005,0.000,21.1,2.1,26
01/01/2013,22:00,137,1.3,13.2,0.4,25.3,87.2,0.000,0.004,0.004,0.000,22.3,4.1,23
01/01/2013,23:00,149,1.3,18.5,0.5,25.0,88.2,0.000,0.004,0.004,0.000,22.6,6.5,23
02/01/2013,00:00,159,1.4,18.9,0.5,24.9,87.8,,,,,21.5,2.0,
02/01/2013,01:00,238,1.5,42.1,0.7,24.2,88.6,0.002,0.003,0.005,0.001,21.6,3.4,16
02/01/2013,02:00,261,1.3,27.8,0.6,22.7,92.0,0.001,0.002,0.003,0.000,17.0,5.6,12
02/01/2013,03:00,264,1.4,37.2,0.9,22.7,91.2,0.001,0.001,0.002,0.000,11.4,1.8,11
02/01/2013,04:00,264,0.9,46.3,0.6,22.7,91.2,0.002,0.003,0.004,0.000,14.5,3.5,12
02/01/2013,05:00,262,1.5,19.4,0.7,22.7,91.0,0.007,0.004,0.011,0.000,17.0,4.1,14
02/01/2013,06:00,234,1.5,36.6,0.7,24.3,86.7,0.006,0.003,0.009,0.000,20.7,5.3,15
02/01/2013,07:00,165,2.1,25.5,0.8,26.1,80.7,0.002,0.002,0.004,0.000,18.8,3.8,16
02/01/2013,08:00,155,2.2,21.2,0.8,27.6,75.2,0.003,0.001,0.004,0.001,17.7,3.7,17
02/01/2013,09:00,142,2.1,29.7,1.0,29.2,68.5,0.003,0.002,0.004,0.001,18.5,5.2,17
02/01/2013,10:00,90,2.1,49.0,1.1,30.5,63.8,0.004,0.005,0.009,0.002,19.0,6.2,19
02/01/2013,11:00,68,3.3,20.7,1.0,31.3,57.8,0.003,0.002,0.005,0.004,18.3,6.1,13
02/01/2013,12:00,68,3.6,19.3,1.1,32.2,54.7,0.001,0.001,0.002,0.001,15.0,5.2,13
02/01/2013,13:00,78,4.2,20.2,1.1,32.3,59.4,0.003,0.002,0.005,0.003,20.5,9.4,16
02/01/2013,14:00,88,4.9,14.8,1.4,31.5,61.4,0.001,0.001,0.002,0.002,20.7,8.2,12
02/01/2013,15:00,88,4.6,16.0,1.2,30.9,59.8,0.000,0.000,0.000,0.001,17.5,7.1,10
02/01/2013,16:00,79,3.4,17.1,1.1,29.7,61.5,0.000,0.000,0.000,0.000,12.2,3.9,10
02/01/2013,17:00,81,2.6,16.2,0.7,29.4,61.1,0.000,0.001,0.001,0.000,15.2,7.3,9
02/01/2013,18:00,70,1.9,17.2,0.7,28.3,68.4,0.001,0.002,0.003,0.001,12.7,4.2,11
02/01/2013,19:00,75,1.5,16.3,0.5,26.5,78.5,0.000,0.000,0.000,0.000,15.0,4.4,14
02/01/2013,20:00,58,0.8,25.2,0.4,25.5,84.1,0.001,0.001,0.002,0.000,18.6,6.8,15
02/01/2013,21:00,104,0.8,26.0,0.4,25.1,87.6,0.001,0.003,0.004,0.000,16.2,3.7,18
02/01/2013,22:00,129,0.7,25.1,0.3,24.7,88.4,0.003,0.005,0.008,0.000,15.9,2.9,18
02/01/2013,23:00,154,0.6,48.1,0.6,23.8,91.1,0.013,0.005,0.018,0.001,18.4,5.5,18
03/01/2013,00:00,143,1.8,15.0,0.6,24.6,89.8,,,,,16.9,3.1,
03/01/2013,01:00,142,2.0,14.5,0.7,24.3,89.4,0.001,0.004,0.005,0.001,18.3,5.4,25
03/01/2013,02:00,148,1.9,13.7,0.6,24.0,88.0,0.001,0.003,0.004,0.000,12.6,2.6,17
03/01/2013,03:00,158,1.9,14.2,0.6,23.9,87.2,0.001,0.003,0.004,0.000,13.5,3.3,12
03/01/2013,04:00,154,2.0,14.3,0.6,23.8,86.8,0.002,0.002,0.004,0.000,15.1,4.3,11
03/01/2013,05:00,159,2.3,18.6,0.8,23.9,85.9,0.003,0.002,0.005,0.000,11.2,1.2,11
03/01/2013,06:00,150,2.4,21.1,0.9,25.1,81.8,0.006,0.003,0.009,0.000,13.4,4.5,12
03/01/2013,07:00,129,3.9,20.0,1.5,27.1,72.3,0.002,0.001,0.003,0.000,10.7,2.7,9
03/01/2013,08:00,118,4.4,20.1,1.3,29.2,60.9,0.005,0.002,0.007,0.004,8.6,0.7,9
03/01/2013,09:00,100,4.9,18.8,1.4,30.3,56.9,0.004,0.003,0.007,0.006,12.7,5.1,10
03/01/2013,10:00,83,5.2,17.7,1.5,31.2,55.1,0.002,0.002,0.004,0.002,15.9,4.8,11
03/01/2013,11:00,80,5.6,15.8,1.5,31.4,54.6,0.002,0.001,0.003,0.001,16.6,4.3,12
03/01/2013,12:00,83,5.9,16.6,1.5,31.3,53.5,0.002,0.002,0.003,0.001,17.4,6.9,11
03/01/2013,13:00,80,5.3,17.8,1.5,31.4,56.1,0.002,0.002,0.004,0.001,13.9,4.0,14
03/01/2013,14:00,81,5.7,16.0,1.6,30.9,60.3,0.001,0.001,0.001,0.001,13.9,3.6,17
03/01/2013,15:00,82,4.9,17.4,1.4,30.4,64.0,0.000,0.001,0.001,0.001,18.9,7.0,17
03/01/2013,16:00,85,4.7,17.1,1.4,29.8,65.2,0.001,0.001,0.002,0.000,19.4,7.1,18
03/01/2013,17:00,88,4.9,15.8,1.6,28.6,70.2,0.001,0.002,0.003,0.000,19.9,6.3,20
03/01/2013,18:00,90,4.7,15.4,1.4,27.5,74.7,0.000,0.002,0.002,0.000,21.7,6.7,21
03/01/2013,19:00,97,4.7,14.0,1.4,27.1,78.0,0.000,0.003,0.003,0.000,29.0,11.4,23
03/01/2013,20:00,100,4.7,14.3,1.4,26.9,79.7,0.000,0.003,0.003,0.000,31.3,8.5,30
03/01/2013,21:00,107,4.4,14.4,1.4,26.6,78.0,0.001,0.003,0.004,0.001,35.1,8.8,30
03/01/2013,22:00,114,4.4,13.6,1.3,26.4,77.5,0.003,0.006,0.008,0.002,38.8,13.0,28
03/01/2013,23:00,122,3.8,15.1,1.1,26.1,76.5,0.037,0.017,0.054,0.015,34.7,10.1,26
04/01/2013,00:00,129,3.6,16.7,1.1,25.7,76.3,,,,,28.7,4.9,
04/01/2013,01:00,136,2.8,14.6,0.9,24.7,77.1,0.001,0.006,0.007,0.002,29.2,6.4,27
04/01/2013,02:00,139,2.4,14.8,0.8,23.8,77.3,0.001,0.005,0.005,0.001,29.7,9.0,33
04/01/2013,03:00,145,1.3,18.1,0.4,23.3,79.4,0.001,0.005,0.006,0.000,30.3,8.9,28
04/01/2013,04:00,166,2.0,19.3,0.9,23.1,79.5,0.001,0.003,0.004,0.000,30.0,8.3,25
04/01/2013,05:00,162,2.8,15.6,1.0,23.4,78.7,0.003,0.003,0.006,0.000,28.4,8.2,23
04/01/2013,06:00,161,2.8,20.4,1.0,24.4,74.9,0.003,0.005,0.007,0.000,27.9,7.1,24
04/01/2013,07:00,140,3.5,19.6,1.3,26.5,67.9,0.003,0.004,0.007,0.000,28.1,7.5,21
04/01/2013,08:00,126,4.3,20.6,1.3,28.3,60.5,0.002,0.002,0.003,0.002,31.5,11.4,19
04/01/2013,09:00,124,4.1,21.4,1.2,29.0,58.9,0.002,0.002,0.004,0.004,27.9,9.3,21
04/01/2013,10:00,94,4.9,24.4,1.6,30.2,53.4,0.002,0.003,0.005,0.003,29.1,10.0,21
04/01/2013,11:00,78,5.3,16.7,1.6,30.8,52.2,0.001,0.001,0.002,0.001,35.4,13.1,19
04/01/2013,12:00,81,5.5,16.2,1.7,31.0,52.6,0.001,0.001,0.001,0.001,26.7,9.1,19
04/01/2013,13:00,84,5.9,15.8,1.4,30.8,55.1,0.001,0.001,0.002,0.001,25.8,8.1,19
04/01/2013,14:00,85,6.0,14.8,1.6,30.4,58.4,0.001,0.001,0.002,0.001,28.9,9.1,19
04/01/2013,15:00,90,5.7,17.6,1.5,29.8,60.8,0.002,0.001,0.003,0.002,30.5,9.2,20
04/01/2013,16:00,90,5.3,16.9,1.5,29.4,62.4,0.002,0.002,0.004,0.002,34.4,8.3,20
04/01/2013,17:00,93,5.0,15.1,1.5,28.4,66.0,0.001,0.001,0.002,0.001,33.9,9.4,20
04/01/2013,18:00,103,4.9,14.8,1.5,27.1,69.7,0.000,0.001,0.001,0.000,35.1,8.5,19
04/01/2013,19:00,106,4.1,15.5,1.4,26.5,72.3,0.000,0.000,0.000,0.000,29.9,6.4,19
04/01/2013,20:00,109,3.7,16.6,1.4,26.2,71.5,0.000,0.004,0.004,0.001,25.1,4.3,17
04/01/2013,21:00,114,4.2,15.0,1.3,26.0,71.7,0.002,0.007,0.008,0.002,21.7,2.3,16
04/01/2013,22:00,119,3.8,15.5,1.6,25.7,72.8,0.015,0.009,0.024,0.008,22.1,3.8,16
04/01/2013,23:00,141,2.3,16.0,0.8,25.2,73.5,0.001,0.004,0.005,0.006,25.6,7.2,17
05/01/2013,00:00,153,2.0,16.7,0.7,24.8,74.1,,,,,25.0,6.2,
05/01/2013,01:00,163,2.9,16.7,0.9,24.2,74.2,0.001,0.002,0.003,0.001,26.4,7.8,17
05/01/2013,02:00,153,2.2,16.3,0.7,23.7,75.8,0.001,0.003,0.004,0.001,29.8,9.7,37
05/01/2013,03:00,153,1.9,17.2,0.7,23.4,77.4,0.001,0.005,0.006,0.000,36.9,14.7,52
05/01/2013,04:00,153,1.8,16.3,0.6,22.9,78.9,0.001,0.004,0.005,0.000,38.5,14.7,45
05/01/2013,05:00,155,1.8,16.3,0.6,22.8,79.2,0.003,0.005,0.008,0.000,41.3,10.3,41
05/01/2013,06:00,135,2.2,21.2,0.9,24.5,75.4,0.005,0.007,0.011,0.000,41.4,11.2,27
05/01/2013,07:00,127,3.8,19.1,1.2,26.6,66.5,0.004,0.003,0.007,0.007,27.7,9.7,17
05/01/2013,08:00,109,4.6,20.2,1.3,28.2,58.9,0.016,0.007,0.023,0.013,22.0,8.3,14
05/01/2013,09:00,100,3.8,22.8,1.4,29.8,55.3,0.008,0.006,0.014,0.010,18.5,6.0,17
05/01/2013,10:00,91,4.7,23.7,1.4,30.6,52.0,0.007,0.004,0.011,0.007,20.0,6.4,14
05/01/2013,11:00,74,4.9,17.2,1.4,30.6,56.7,0.001,0.001,0.002,0.002,21.2,5.5,12
05/01/2013,12:00,80,5.4,18.0,1.6,30.9,56.1,0.002,0.002,0.004,0.001,21.6,8.0,12
05/01/2013,13:00,87,6.4,15.8,1.7,30.2,60.5,0.001,0.001,0.001,0.001,17.2,2.9,11
05/01/2013,14:00,93,6.0,16.4,1.7,29.5,62.7,0.001,0.000,0.001,0.001,24.8,3.5,7
05/01/2013,15:00,96,5.4,17.3,1.6,28.8,65.1,0.001,0.000,0.001,0.001,18.5,3.4,8
05/01/2013,16:00,92,5.3,15.4,1.5,28.7,64.5,0.002,0.001,0.003,0.002,16.7,3.0,10
05/01/2013,17:00,99,4.8,16.6,1.4,28.7,62.7,0.000,0.001,0.001,0.001,19.6,4.5,8
05/01/2013,18:00,102,4.4,14.6,1.3,27.2,68.7,0.001,0.000,0.001,0.001,19.7,5.4,11
05/01/2013,19:00,101,3.7,15.4,1.2,26.4,72.7,0.000,0.001,0.001,0.000,23.5,6.2,12
05/01/2013,20:00,105,4.0,14.7,1.2,26.4,72.3,0.000,0.001,0.001,0.000,24.1,7.3,11
05/01/2013,21:00,112,4.0,14.9,1.1,26.3,73.8,0.002,0.005,0.007,0.002,21.2,4.4,12
05/01/2013,22:00,124,3.4,15.8,1.2,26.0,75.2,0.006,0.008,0.014,0.005,20.0,3.3,13
05/01/2013,23:00,128,2.6,15.0,1.0,25.4,75.9,0.004,0.007,0.011,0.008,19.0,3.5,12
06/01/2013,00:00,141,2.3,18.6,0.8,25.0,75.8,,,,,19.5,4.1,
06/01/2013,01:00,163,2.4,16.9,0.8,24.5,75.7,0.001,0.002,0.003,0.002,18.8,4.7,9
06/01/2013,02:00,158,2.0,17.6,0.7,23.9,76.2,0.001,0.001,0.002,0.001,16.0,1.8,9
06/01/2013,03:00,164,3.0,16.5,1.0,23.7,77.1,0.001,0.003,0.004,0.000,14.6,0.8,13
06/01/2013,04:00,160,2.5,17.0,1.1,23.8,76.9,0.001,0.002,0.002,0.000,19.3,6.5,11
06/01/2013,05:00,161,2.6,16.5,0.8,23.7,76.9,0.001,0.001,0.002,0.000,20.9,7.6,9
06/01/2013,06:00,140,2.4,21.7,1.0,24.7,75.2,0.003,0.004,0.006,0.000,17.4,5.3,8
06/01/2013,07:00,128,3.7,17.8,1.3,25.9,71.2,0.001,0.001,0.002,0.002,9.6,0.8,8
06/01/2013,08:00,132,3.8,20.7,1.4,27.3,66.3,0.002,0.002,0.004,0.003,11.3,4.2,7
06/01/2013,09:00,113,4.4,22.7,1.3,28.8,61.0,0.006,0.005,0.011,0.009,9.5,2.4,7
06/01/2013,10:00,105,5.1,18.0,1.4,29.8,57.4,0.004,0.003,0.007,0.004,11.4,2.6,8
06/01/2013,11:00,99,5.1,21.0,1.5,29.5,58.8,0.003,0.003,0.006,0.003,10.6,1.4,6
06/01/2013,12:00,88,5.7,18.4,1.5,29.3,63.2,0.002,0.001,0.002,0.002,12.9,-0.2,7
06/01/2013,13:00,83,6.1,17.2,1.6,29.7,62.7,0.001,0.001,0.002,0.001,14.7,0.5,6
06/01/2013,14:00,94,6.1,15.1,1.8,28.6,65.4,0.001,0.001,0.002,0.001,26.8,5.8,6
06/01/2013,15:00,104,5.7,15.9,1.7,27.5,65.3,0.000,0.001,0.001,0.001,18.4,4.0,4
06/01/2013,16:00,105,4.9,16.5,1.4,27.8,64.2,0.000,0.001,0.001,0.000,13.2,2.8,4
06/01/2013,17:00,100,5.0,14.7,1.4,27.3,65.6,0.000,0.001,0.001,0.000,14.5,4.6,5
06/01/2013,18:00,101,4.1,16.4,1.2,26.7,71.6,0.000,0.001,0.001,0.000,16.7,5.9,8
06/01/2013,19:00,105,4.3,16.4,1.3,26.2,74.9,0.000,0.002,0.002,0.001,14.3,2.1,9
06/01/2013,20:00,120,4.2,16.5,1.4,26.2,73.6,0.017,0.011,0.027,0.007,14.3,1.3,8
06/01/2013,21:00,124,3.5,15.5,1.3,25.7,72.8,0.037,0.014,0.051,0.020,17.3,1.0,9
06/01/2013,22:00,131,2.8,19.3,1.1,25.1,77.3,0.031,0.014,0.045,0.017,15.8,2.5,11
06/01/2013,23:00,131,3.1,15.8,1.0,25.1,76.8,0.025,0.010,0.034,0.019,19.6,4.8,11
07/01/2013,00:00,139,2.6,15.8,1.0,24.7,74.9,,,,,19.0,6.4,
07/01/2013,01:00,153,2.2,14.9,0.8,23.7,77.3,0.001,0.006,0.007,0.002,13.3,2.7,9
07/01/2013,02:00,159,1.7,18.1,0.6,23.1,78.3,0.001,0.007,0.008,0.001,13.1,3.2,9
07/01/2013,03:00,157,1.8,15.7,0.6,22.9,77.7,0.001,0.004,0.005,0.001,12.2,3.2,8
07/01/2013,04:00,158,1.8,15.9,0.6,22.9,77.5,0.001,0.003,0.004,0.000,13.5,4.0,9
07/01/2013,05:00,170,2.8,17.9,1.0,23.6,75.7,0.002,0.004,0.006,0.000,13.2,2.2,10
07/01/2013,06:00,154,3.4,16.1,1.1,24.4,73.5,0.003,0.005,0.008,0.000,12.7,-0.1,9
07/01/2013,07:00,134,3.5,19.6,1.5,25.8,70.0,0.004,0.003,0.007,0.000,13.4,2.5,8
07/01/2013,08:00,128,4.4,18.6,1.4,27.4,64.5,0.003,0.002,0.005,0.002,16.4,5.2,8
07/01/2013,09:00,112,5.6,17.6,1.6,28.4,60.4,0.012,0.007,0.019,0.010,15.2,4.3,8
07/01/2013,10:00,100,6.1,15.3,1.7,29.6,54.7,0.002,0.001,0.003,0.002,18.5,4.4,9
07/01/2013,11:00,92,6.6,17.8,1.8,30.2,53.8,0.001,0.001,0.002,0.001,27.1,4.0,11
07/01/2013,12:00,89,7.0,16.3,1.9,29.9,55.8,0.002,0.001,0.003,0.002,31.0,2.9,10
07/01/2013,13:00,91,7.0,15.1,1.9,29.9,55.3,0.002,0.001,0.002,0.002,38.0,5.6,11
07/01/2013,14:00,90,6.1,16.6,1.6,30.1,55.0,0.001,0.001,0.001,0.001,39.6,8.7,11
07/01/2013,15:00,89,6.2,14.8,1.7,29.6,55.1,0.001,0.001,0.001,0.001,33.6,3.1,10
07/01/2013,16:00,92,6.2,14.9,1.9,28.8,59.9,0.001,0.001,0.002,0.001,29.6,5.9,10
07/01/2013,17:00,98,6.1,16.3,1.7,28.0,63.7,0.001,0.001,0.001,0.001,26.5,3.6,10
07/01/2013,18:00,104,4.9,14.6,1.4,26.9,66.4,0.000,0.001,0.001,0.000,25.6,6.5,10
07/01/2013,19:00,107,4.6,16.0,1.5,26.1,68.9,0.001,0.003,0.004,0.001,15.8,2.5,11
07/01/2013,20:00,118,3.8,16.5,1.2,25.9,69.9,0.021,0.010,0.031,0.009,17.0,5.3,13
07/01/2013,21:00,124,3.4,17.4,1.3,25.8,70.7,0.016,0.014,0.029,0.014,18.0,5.3,13
07/01/2013,22:00,138,2.8,15.2,0.9,25.4,70.8,0.003,0.008,0.011,0.009,18.6,5.1,12
07/01/2013,23:00,148,1.9,19.7,0.7,24.8,72.5,0.002,0.006,0.008,0.005,17.9,4.9,11
08/01/2013,00:00,158,1.6,16.3,0.5,24.1,74.1,,,,,20.0,7.3,
08/01/2013,01:00,155,1.6,17.6,0.5,23.9,75.2,0.002,0.005,0.007,0.001,19.7,5.3,12
08/01/2013,02:00,158,1.7,16.9,0.5,23.5,76.3,0.001,0.005,0.006,0.001,22.8,6.0,11
08/01/2013,03:00,180,1.8,35.7,0.9,23.2,77.6,0.002,0.004,0.006,0.000,18.0,4.4,15
08/01/2013,04:00,158,1.8,19.6,0.7,23.4,78.4,0.001,0.005,0.006,0.000,21.1,7.0,14
08/01/2013,05:00,166,2.4,23.9,1.0,22.9,82.5,0.004,0.005,0.009,0.000,17.8,5.8,12
08/01/2013,06:00,191,1.8,36.0,0.7,23.5,80.8,0.007,0.006,0.013,0.000,23.8,6.8,13
08/01/2013,07:00,176,0.9,64.0,0.7,24.9,76.3,0.017,0.009,0.026,0.006,25.1,6.7,15
08/01/2013,08:00,92,2.8,26.6,1.2,27.5,67.4,0.005,0.005,0.010,0.005,22.1,6.8,15
08/01/2013,09:00,78,3.3,23.0,1.0,28.8,63.1,0.002,0.002,0.004,0.002,22.3,6.0,15
08/01/2013,10:00,84,4.1,18.5,1.2,29.5,59.9,0.002,0.002,0.004,0.002,21.4,6.1,14
08/01/2013,11:00,74,4.3,18.0,1.1,29.8,55.2,0.002,0.002,0.004,0.001,13.0,3.3,12
08/01/2013,12:00,81,4.0,20.8,1.2,30.4,51.2,0.001,0.001,0.002,0.001,13.7,4.6,11
08/01/2013,13:00,82,4.5,18.6,1.2,30.6,50.3,0.001,0.001,0.001,0.001,10.8,4.0,9
08/01/2013,14:00,90,4.7,17.5,1.2,30.3,52.4,0.002,0.002,0.003,0.001,11.9,4.6,9
08/01/2013,15:00,92,4.7,15.0,1.2,29.9,52.7,0.000,0.000,0.000,0.000,9.9,2.6,7
08/01/2013,16:00,90,4.5,15.2,1.2,29.3,57.0,0.001,0.000,0.001,0.001,8.4,0.9,8
08/01/2013,17:00,83,3.7,16.1,1.1,28.7,58.9,0.000,0.000,0.000,0.000,11.6,3.8,8
08/01/2013,18:00,62,2.1,16.0,0.7,27.0,61.8,0.000,0.001,0.001,0.000,13.3,5.6,8
08/01/2013,19:00,45,1.4,21.6,0.6,25.4,69.4,0.000,0.005,0.005,0.002,12.1,4.1,11
08/01/2013,20:00,39,0.8,29.7,0.4,24.7,73.9,0.000,0.005,0.005,0.003,19.2,4.2,12
08/01/2013,21:00,340,0.5,31.2,0.2,23.8,78.3,0.007,0.008,0.015,0.001,23.9,5.1,20
08/01/2013,22:00,293,0.7,11.9,0.2,22.5,83.4,0.027,0.012,0.038,0.001,75.0,16.4,32
08/01/2013,23:00,292,0.6,12.3,0.1,21.5,87.1,0.041,0.010,0.051,0.001,70.3,13.3,28
09/01/2013,00:00,285,0.8,11.4,0.2,20.8,89.2,,,,,50.7,8.0,
09/01/2013,01:00,295,1.0,11.8,0.2,20.1,90.4,0.013,0.008,0.021,0.001,36.5,5.4,15
09/01/2013,02:00,301,1.1,9.9,0.2,19.9,91.2,0.009,0.007,0.016,0.001,29.3,5.9,13
09/01/2013,03:00,295,1.0,10.7,0.2,20.1,91.2,0.009,0.007,0.016,0.001,17.5,-0.2,13
09/01/2013,04:00,294,0.9,12.2,0.3,20.1,90.8,0.009,0.007,0.015,0.001,18.3,3.5,12
09/01/2013,05:00,296,1.0,12.0,0.3,19.9,91.3,0.025,0.008,0.033,0.001,17.9,6.1,13
09/01/2013,06:00,305,0.9,18.3,0.3,22.0,86.7,0.023,0.007,0.030,0.001,24.4,8.6,13
09/01/2013,07:00,30,1.1,73.5,1.2,26.8,72.3,0.007,0.004,0.011,0.001,25.2,8.0,13
09/01/2013,08:00,13,2.4,171.2,1.1,28.9,63.0,0.004,0.003,0.006,0.001,22.2,6.2,10
09/01/2013,09:00,350,2.0,46.0,1.0,31.4,51.3,0.002,0.001,0.002,0.001,20.3,7.7,9
09/01/2013,10:00,6,2.3,161.6,1.4,32.6,47.1,0.002,0.002,0.003,0.001,18.4,7.7,9
09/01/2013,11:00,37,3.8,19.9,1.3,33.1,47.6,0.000,0.000,0.000,0.001,15.7,5.3,10
09/01/2013,12:00,36,3.3,27.3,1.2,33.7,47.1,0.002,0.001,0.003,0.001,16.3,5.4,12
09/01/2013,13:00,33,3.7,20.9,1.2,34.4,45.9,0.002,0.001,0.002,0.001,19.7,6.5,13
09/01/2013,14:00,30,3.4,23.6,1.4,34.0,47.6,0.001,0.000,0.001,0.001,23.7,9.9,13
09/01/2013,15:00,19,3.4,163.6,1.5,32.9,51.9,0.006,0.004,0.010,0.001,26.8,7.5,13
09/01/2013,16:00,24,3.3,19.3,1.2,32.2,52.7,0.004,0.003,0.007,0.001,26.8,8.4,12
09/01/2013,17:00,12,2.9,177.9,1.4,30.5,58.6,0.004,0.004,0.008,0.001,23.9,8.5,11
09/01/2013,18:00,15,2.5,19.2,1.0,28.2,67.4,0.002,0.002,0.004,0.001,19.3,5.5,12
09/01/2013,19:00,6,1.7,23.1,0.8,26.7,75.8,0.003,0.004,0.006,0.001,16.9,3.2,13
09/01/2013,20:00,8,1.1,29.7,0.6,26.0,78.3,0.000,0.003,0.003,0.001,19.3,5.1,14
09/01/2013,21:00,11,0.9,175.7,0.4,25.6,80.4,0.000,0.002,0.002,0.001,16.7,3.6,14
09/01/2013,22:00,7,0.9,24.0,0.5,25.1,82.6,0.000,0.001,0.001,0.001,16.6,1.3,14
09/01/2013,23:00,359,0.9,161.3,0.5,24.9,83.3,0.001,0.005,0.005,0.001,19.6,4.4,14
10/01/2013,00:00,95,0.3,53.4,0.2,24.3,85.5,,,,,20.6,4.5,
10/01/2013,01:00,154,0.4,31.0,0.2,23.7,86.9,0.017,0.010,0.027,0.001,47.6,9.6,24
10/01/2013,02:00,244,0.3,53.0,0.2,22.6,89.9,0.021,0.007,0.028,0.001,63.3,11.8,25
10/01/2013,03:00,296,0.7,16.4,0.2,22.0,92.0,0.019,0.007,0.025,0.001,62.2,9.6,31
10/01/2013,04:00,276,1.0,32.9,0.4,21.8,92.9,0.022,0.007,0.028,0.001,79.6,8.8,21
10/01/2013,05:00,275,1.5,28.3,0.6,22.6,91.3,0.011,0.007,0.018,0.001,42.9,8.5,14
10/01/2013,06:00,277,1.5,24.0,0.5,24.2,86.8,0.011,0.007,0.018,0.001,24.1,9.9,15
10/01/2013,07:00,57,1.5,53.3,0.9,27.6,76.0,0.005,0.004,0.009,0.001,22.9,9.3,14
10/01/2013,08:00,53,2.2,26.9,0.8,29.8,66.8,0.003,0.003,0.005,0.002,19.7,6.4,12
10/01/2013,09:00,56,2.7,24.7,1.0,31.2,61.9,0.001,0.001,0.002,0.001,17.8,5.5,12
10/01/2013,10:00,55,3.4,19.7,1.1,31.7,61.5,0.001,0.001,0.002,0.001,16.6,3.8,11
10/01/2013,11:00,57,3.3,21.1,0.9,32.1,59.2,0.001,0.000,0.001,0.001,18.8,7.2,13
10/01/2013,12:00,60,3.3,22.5,1.1,33.2,56.2,0.001,0.000,0.001,0.001,22.8,7.7,13
10/01/2013,13:00,57,3.5,20.2,1.3,33.7,52.8,0.001,0.000,0.001,0.001,23.1,6.5,13
10/01/2013,14:00,48,3.4,19.6,1.1,33.7,53.4,0.001,0.001,0.002,0.001,23.0,7.7,11
10/01/2013,15:00,48,3.9,18.4,1.3,32.5,54.1,0.001,0.001,0.002,0.001,24.5,7.8,10
10/01/2013,16:00,44,3.1,19.0,1.0,31.1,58.8,0.001,0.001,0.002,0.001,20.1,4.5,9
10/01/2013,17:00,43,2.8,18.0,1.0,30.1,61.9,0.001,0.000,0.001,0.001,12.5,2.6,7
10/01/2013,18:00,38,2.1,22.2,1.0,27.9,70.8,0.001,0.001,0.002,0.001,10.4,3.1,9
10/01/2013,19:00,39,1.6,23.4,1.0,26.5,78.7,0.000,0.002,0.002,0.000,12.6,2.8,13
10/01/2013,20:00,52,1.1,22.7,0.5,26.1,82.2,0.000,0.005,0.005,0.001,14.0,4.2,15
10/01/2013,21:00,46,1.2,24.9,0.6,26.0,83.7,0.000,0.003,0.003,0.001,13.6,3.7,16
10/01/2013,22:00,14,0.2,154.5,0.3,25.5,85.2,0.001,0.004,0.005,0.001,13.6,3.3,14
10/01/2013,23:00,55,0.6,36.2,0.4,24.8,88.6,0.002,0.005,0.007,0.001,12.9,-0.6,17
11/01/2013,00:00,264,0.2,77.4,0.2,25.1,88.3,,,,,16.0,2.9,
11/01/2013,01:00,61,0.4,54.0,0.2,25.2,89.1,0.003,0.006,0.009,0.002,27.6,7.8,19
11/01/2013,02:00,58,0.4,53.8,0.3,25.4,90.0,0.002,0.004,0.005,0.001,12.0,3.3,20
11/01/2013,03:00,116,0.5,44.6,0.3,25.3,90.8,0.004,0.004,0.008,0.001,16.1,2.5,28
11/01/2013,04:00,130,0.6,53.3,0.3,25.5,91.2,0.006,0.006,0.011,0.001,33.1,6.1,30
11/01/2013,05:00,283,0.6,55.7,0.5,25.1,90.4,0.013,0.007,0.020,0.001,22.0,6.5,23
11/01/2013,06:00,218,0.8,69.5,0.7,26.4,86.6,0.008,0.006,0.014,0.001,29.9,10.9,24
11/01/2013,07:00,97,1.2,48.4,0.7,28.2,81.3,0.005,0.004,0.008,0.001,23.5,5.3,29
11/01/2013,08:00,67,1.2,44.8,0.7,28.7,79.8,0.003,0.002,0.005,0.001,18.3,6.5,34
11/01/2013,09:00,81,2.6,30.0,1.1,31.3,68.4,0.003,0.002,0.004,0.001,17.7,6.1,31
11/01/2013,10:00,94,4.6,14.9,1.1,31.5,69.1,0.003,0.002,0.004,0.001,15.0,5.1,30
11/01/2013,11:00,89,4.8,15.1,1.3,31.7,68.8,0.004,0.002,0.005,0.001,12.7,4.1,34
11/01/2013,12:00,89,5.0,16.8,1.2,32.1,66.9,0.001,0.001,0.002,0.001,16.7,9.4,31
11/01/2013,13:00,76,4.1,21.1,1.3,32.7,64.5,0.001,0.000,0.001,0.001,13.7,7.8,32
11/01/2013,14:00,43,3.3,19.3,1.1,33.1,58.7,0.000,0.001,0.001,0.001,15.5,6.4,26
11/01/2013,15:00,43,3.0,22.2,1.1,33.0,58.6,0.001,0.000,0.001,0.001,17.2,8.5,27
11/01/2013,16:00,43,2.7,19.8,1.0,32.2,61.1,0.001,0.000,0.001,0.001,20.2,7.9,26
11/01/2013,17:00,71,3.4,16.0,1.1,30.5,70.7,0.002,0.001,0.002,0.001,16.2,6.9,40
11/01/2013,18:00,51,2.2,20.9,1.0,28.5,77.5,0.001,0.001,0.002,0.001,12.8,7.3,43
11/01/2013,19:00,46,1.7,20.3,0.7,27.4,83.0,0.000,0.001,0.001,0.000,13.2,7.2,48
11/01/2013,20:00,52,1.5,19.6,0.6,27.2,84.7,0.002,0.003,0.005,0.001,12.2,4.9,50
11/01/2013,21:00,48,1.4,21.0,0.6,27.0,85.3,0.002,0.005,0.006,0.001,15.5,9.4,48
11/01/2013,22:00,42,1.1,20.5,0.5,26.8,86.1,0.002,0.006,0.007,0.001,16.5,9.2,44
11/01/2013,23:00,35,0.8,28.4,0.5,26.8,86.7,0.000,0.003,0.003,0.001,13.8,6.7,39
12/01/2013,00:00,38,1.2,20.1,0.6,26.8,85.8,,,,,13.2,4.3,
12/01/2013,01:00,32,1.3,21.6,0.6,26.6,85.7,0.000,0.003,0.003,0.001,14.2,4.9,34
12/01/2013,02:00,21,0.7,46.7,0.6,26.0,87.9,0.000,0.002,0.002,0.001,21.0,4.2,35
12/01/2013,03:00,328,0.2,114.8,0.2,25.3,89.8,0.002,0.004,0.006,0.000,27.4,3.8,40
12/01/2013,04:00,314,0.5,25.8,0.2,25.1,90.8,0.002,0.004,0.005,0.000,42.8,7.7,39
12/01/2013,05:00,291,0.7,17.2,0.2,24.5,92.0,0.014,0.004,0.018,0.001,49.7,11.0,41
12/01/2013,06:00,350,0.7,45.5,0.6,25.9,89.0,0.014,0.003,0.016,0.001,68.8,13.4,41
12/01/2013,07:00,36,1.6,36.1,0.7,28.8,76.1,0.001,0.000,0.001,0.000,44.2,13.1,28
12/01/2013,08:00,56,2.0,33.9,0.9,30.5,66.2,0.001,0.001,0.002,0.001,23.8,7.1,22
12/01/2013,09:00,83,3.1,20.7,0.9,31.4,64.6,0.003,0.003,0.005,0.001,22.0,8.5,23
12/01/2013,10:00,82,3.7,18.1,1.0,31.9,64.0,0.002,0.001,0.003,0.000,22.9,10.6,21
12/01/2013,11:00,84,4.1,17.7,1.2,32.4,60.7,0.001,0.001,0.002,0.001,19.8,8.6,20
12/01/2013,12:00,87,4.7,15.8,1.1,32.7,58.7,0.001,0.001,0.002,0.001,17.6,7.7,19
12/01/2013,13:00,83,4.1,23.1,1.4,33.2,57.4,0.001,0.001,0.002,0.001,17.7,7.8,22
12/01/2013,14:00,51,3.0,23.6,1.1,33.9,53.9,0.001,0.001,0.002,0.001,27.0,8.5,22
12/01/2013,15:00,40,3.3,20.0,1.0,32.7,58.6,0.002,0.001,0.003,0.001,24.7,8.1,20
12/01/2013,16:00,31,3.0,18.5,1.0,31.4,62.4,0.001,0.001,0.002,0.001,22.7,9.5,19
12/01/2013,17:00,31,2.5,20.0,1.0,30.0,66.6,0.001,0.001,0.002,0.001,22.2,8.7,18
12/01/2013,18:00,33,2.0,19.6,0.8,28.2,72.8,0.001,0.001,0.002,0.000,20.7,7.1,18
12/01/2013,19:00,31,1.8,19.5,0.7,27.0,80.0,0.001,0.001,0.002,0.000,21.3,7.6,20
12/01/2013,20:00,30,1.3,25.4,0.7,26.5,81.5,0.001,0.001,0.002,0.000,20.6,6.5,21
12/01/2013,21:00,19,1.3,19.1,0.5,26.2,82.8,0.000,0.002,0.002,0.000,21.4,6.5,21
12/01/2013,22:00,21,0.5,30.7,0.3,25.4,85.2,0.001,0.002,0.002,0.000,21.4,6.4,20
12/01/2013,23:00,302,0.4,43.5,0.2,24.6,87.6,0.003,0.003,0.006,0.001,27.2,9.9,23
13/01/2013,00:00,290,0.7,18.9,0.2,23.6,90.5,,,,,50.2,8.7,
13/01/2013,01:00,289,0.8,17.9,0.2,23.0,92.2,0.006,0.004,0.010,0.001,112.5,15.1,40
13/01/2013,02:00,297,1.0,11.2,0.2,22.8,93.0,0.007,0.003,0.009,0.001,81.0,9.2,27
13/01/2013,03:00,291,1.2,10.7,0.3,22.5,93.4,0.007,0.003,0.010,0.001,53.1,9.0,22
13/01/2013,04:00,291,1.0,14.2,0.3,22.6,93.4,0.007,0.002,0.009,0.001,31.8,6.2,19
13/01/2013,05:00,280,1.4,11.4,0.4,22.6,93.7,0.007,0.002,0.009,0.001,24.6,5.8,20
13/01/2013,06:00,327,0.4,152.1,0.3,24.5,90.9,0.009,0.002,0.011,0.001,24.8,7.3,22
13/01/2013,07:00,43,1.4,32.5,0.6,28.0,75.7,0.005,0.004,0.009,0.001,26.9,11.6,23
13/01/2013,08:00,88,1.7,39.7,0.8,29.8,67.0,0.002,0.004,0.006,0.001,21.1,8.3,18
13/01/2013,09:00,78,2.5,28.6,0.9,31.2,60.8,0.000,0.003,0.003,0.001,17.1,4.8,16